Theta_e
340 340 342 344 346 348 348 348 350 350 351 351 351 352 351 351 350 350 350 350 350 350 350 350 350 350 349 349 349 349 346 346 346 346 344 344 343 343 342 342 341 341 341 342 342 344 344 344 344 344 343 344 345 346 346 348 348 347 347 346 346 346 346 346 345 344 343 343 345 345 345 346 345 345 344 343 343 342 341 342 343 342 344 346 348
340 341 342 344 346 347 348 348 349 351 351 351 351 351 351 350 350 350 350 350 350 350 350 350 350 350 350 349 348 348 346 346 346 346 345 343 343 342 341 340 340 341 341 342 342 341 342 342 343 344 343 343 344 344 346 347 346 346 346 346 345 345 345 345 344 342 341 341 341 341 342 344 344 343 343 343 342 342 340 340 341 341 342 345 346
342 341 342 344 346 346 347 347 348 350 351 351 351 351 350 350 349 349 350 350 349 349 350 350 349 350 349 349 349 348 346 345 345 345 345 343 343 340 340 340 339 339 340 340 341 341 341 342 344 344 345 344 344 345 345 346 346 345 345 345 344 344 344 344 344 341 340 340 340 339 339 341 342 342 343 342 341 341 338 339 340 340 340 344 344
341 342 343 344 344 346 346 346 346 348 350 350 351 350 350 350 350 349 349 348 348 349 348 349 349 349 349 348 348 347 345 345 345 345 344 343 343 339 338 339 339 339 339 340 340 340 340 341 342 343 343 343 344 344 344 345 345 344 344 344 343 344 344 343 342 340 340 339 339 338 338 338 338 341 342 342 341 340 338 338 337 339 341 342 343
343 343 344 345 344 345 346 346 346 348 350 350 350 350 350 350 350 349 349 349 348 349 348 348 348 349 348 348 348 347 345 345 345 345 344 343 342 340 337 338 339 339 339 339 339 340 340 340 340 340 341 343 343 343 344 344 344 344 343 342 342 342 341 340 340 339 338 338 338 337 336 337 338 339 340 341 340 339 338 338 338 338 337 338 340
343 344 344 344 345 345 343 344 347 348 349 350 350 350 350 349 349 348 348 348 348 348 348 348 348 347 347 348 347 346 346 345 345 344 343 343 342 340 337 338 339 339 339 339 339 338 339 339 339 339 341 342 342 344 344 344 344 343 342 342 341 341 340 339 339 337 336 336 337 337 335 335 335 336 339 339 339 337 336 337 338 338 337 337 337
343 344 344 344 345 345 343 345 347 348 350 350 350 349 349 348 348 348 348 348 347 346 346 347 347 347 347 347 347 346 345 345 345 343 344 343 342 340 336 337 339 338 339 339 338 338 338 338 338 339 340 342 344 344 344 344 343 342 341 341 341 340 339 338 337 336 335 335 335 335 334 334 334 333 338 339 338 337 336 337 338 337 338 337 337
345 346 345 345 346 344 343 346 345 348 349 349 350 350 349 348 347 346 347 347 347 346 345 346 346 347 347 347 347 345 345 344 344 343 343 343 342 341 337 336 338 338 338 338 338 338 337 338 338 340 341 340 341 342 343 342 341 341 340 340 339 338 337 336 335 334 334 334 334 334 334 335 335 333 336 337 338 336 336 336 337 336 336 337 335
345 347 346 345 345 342 344 345 346 348 349 349 349 349 349 348 346 346 346 346 346 346 347 347 347 346 346 346 346 345 345 344 343 343 342 342 341 340 337 336 337 338 338 338 338 338 337 337 337 338 340 341 341 342 342 342 341 340 339 339 338 337 336 334 333 332 333 334 334 332 333 334 334 334 335 336 336 336 335 335 335 335 334 334 334
345 347 346 345 346 340 343 344 347 348 348 349 349 349 349 348 347 346 346 346 347 347 347 347 346 346 346 346 345 345 345 344 343 342 341 341 340 339 336 335 336 337 337 337 338 338 337 337 339 339 341 342 341 340 341 340 340 340 339 339 337 336 334 332 331 331 333 333 334 333 334 335 332 332 335 336 335 335 334 334 334 334 333 333 334
345 346 344 344 345 340 345 346 346 347 347 347 348 348 348 348 347 347 347 347 347 347 347 346 346 346 346 346 345 345 345 344 342 341 340 340 339 339 336 333 335 336 335 337 337 338 337 337 337 338 340 340 340 340 340 339 339 338 338 337 335 334 333 330 329 331 331 332 333 333 333 334 332 332 335 336 335 334 334 334 334 334 334 334 334
344 346 344 344 343 339 343 345 346 348 347 347 348 348 348 348 347 347 347 347 347 346 346 346 346 346 346 346 345 345 344 343 342 341 340 339 337 337 335 334 336 336 335 335 336 337 337 336 338 339 340 340 339 338 337 337 337 336 336 335 334 332 329 327 328 329 331 331 332 333 333 330 330 332 335 335 334 334 332 332 333 333 333 333 333
344 346 345 344 343 337 337 344 344 346 347 346 346 345 347 348 347 346 347 347 347 347 346 346 346 346 345 345 345 345 344 342 341 340 339 339 336 333 332 333 335 336 335 334 335 336 337 338 339 339 338 335 333 333 333 334 335 334 334 333 331 329 326 324 326 327 328 330 332 333 335 332 331 333 333 334 334 333 332 332 333 332 333 333 333
344 345 344 344 340 340 336 340 341 344 344 345 346 346 346 347 347 347 347 347 346 346 346 346 346 345 345 345 344 344 343 342 341 340 339 338 336 332 331 332 335 336 335 334 334 335 336 337 337 336 331 329 328 329 330 331 332 332 330 329 327 325 322 322 323 325 326 328 330 333 335 331 331 334 333 334 334 334 333 333 332 332 332 332 332
343 344 344 345 339 341 338 337 339 338 344 346 347 347 347 346 346 347 347 346 346 346 346 346 345 345 345 344 344 343 342 342 341 340 339 339 336 333 331 332 335 335 335 334 334 333 334 335 335 331 328 325 325 325 327 328 329 328 326 324 323 321 319 321 323 325 326 328 329 332 336 332 334 334 334 334 335 333 333 333 334 335 335 336 335
343 344 343 342 343 343 342 339 335 334 339 340 343 344 345 345 343 346 347 346 346 346 346 345 345 345 344 344 344 343 342 341 341 339 338 337 336 333 331 332 333 333 333 333 333 333 333 333 332 328 324 323 323 324 325 325 325 324 323 322 320 319 317 318 322 324 326 328 330 333 334 335 336 338 339 338 338 337 336 336 337 336 337 336 337
336 337 338 338 342 342 342 341 336 332 332 333 337 339 342 343 344 345 346 346 346 347 346 345 345 345 344 344 343 342 341 340 340 339 338 336 335 333 330 330 331 330 330 331 331 332 332 331 329 325 323 322 323 323 323 323 323 322 322 321 320 318 316 317 320 322 324 327 330 332 331 333 335 337 338 338 338 338 338 337 337 337 337 336 336
327 329 330 330 335 338 340 341 339 339 340 335 332 336 339 343 343 343 344 345 345 346 345 345 345 344 343 342 340 341 341 340 340 338 337 336 334 333 331 330 330 329 328 328 330 330 329 328 325 324 323 323 323 323 323 322 321 320 319 319 318 317 317 318 321 323 324 326 329 331 329 332 334 335 336 336 336 337 336 336 336 336 335 334 335
323 323 324 326 325 329 330 332 337 341 341 341 341 338 332 335 337 339 340 342 343 343 343 341 341 342 340 337 336 335 335 335 336 337 336 335 333 331 332 330 330 330 327 325 327 329 327 325 324 324 323 323 323 322 321 320 319 319 318 316 314 314 315 319 322 323 325 326 328 327 328 330 332 332 334 334 333 334 334 334 333 333 333 333 333
321 321 323 322 322 324 326 328 330 334 341 341 341 340 331 329 332 335 337 339 340 339 337 335 334 334 333 331 329 331 331 333 327 333 331 334 332 330 331 330 330 330 328 324 323 323 324 324 324 323 323 322 322 321 319 319 318 317 316 315 313 313 317 319 321 323 324 325 327 325 328 329 329 331 331 331 332 331 332 333 333 332 332 332 331
320 319 320 322 320 321 322 325 326 329 331 340 341 340 336 329 329 329 332 334 334 334 332 326 325 324 326 323 326 335 336 337 337 335 325 333 325 326 330 332 330 328 327 324 322 322 322 322 321 321 319 317 316 316 316 317 316 315 314 312 312 315 316 318 320 321 324 326 326 326 328 328 328 330 330 329 329 330 330 330 331 331 330 329 329
322 319 317 318 319 319 321 322 324 326 327 334 340 340 337 333 338 338 338 332 328 327 332 335 331 334 324 331 336 335 336 337 335 330 333 332 330 325 329 332 331 329 327 324 322 322 323 323 322 320 318 315 311 309 309 311 312 312 311 311 313 314 315 316 317 318 321 324 325 326 327 327 327 329 329 329 328 328 328 328 329 329 329 329 328
319 318 317 315 316 317 319 321 321 324 325 329 335 339 337 338 339 338 335 329 332 334 334 333 336 336 337 337 335 337 337 336 335 332 332 324 329 325 328 330 330 327 327 324 323 324 323 323 321 318 316 312 310 309 309 309 308 308 308 310 310 311 312 314 314 316 317 320 323 325 326 327 328 330 330 330 330 329 328 328 328 328 328 328 327
317 315 316 315 315 317 317 320 321 322 324 325 328 336 338 340 339 338 335 335 335 335 335 335 335 336 337 336 336 336 336 336 328 325 327 332 328 322 323 324 324 323 322 323 323 323 322 320 318 315 313 311 310 309 308 307 307 308 308 307 307 307 308 309 310 312 314 317 320 323 325 327 328 328 329 330 330 329 329 329 328 328 329 329 329
311 311 311 312 314 314 315 318 320 322 325 324 327 331 337 339 339 337 336 335 335 335 335 335 335 336 335 335 336 335 335 333 333 334 333 332 331 330 328 326 324 321 317 319 318 316 316 315 314 313 312 311 309 308 308 306 306 305 304 303 302 303 303 304 305 307 310 313 316 319 322 324 326 328 329 328 328 328 329 328 327 328 328 328 328
306 311 313 312 313 312 313 316 318 321 324 325 324 326 334 337 337 337 336 336 335 334 335 334 335 336 335 334 335 335 333 332 332 333 332 332 329 327 326 326 326 323 321 320 319 317 316 315 315 313 311 310 309 308 306 305 304 303 301 300 299 298 298 298 299 301 305 308 311 316 319 322 324 325 327 327 327 327 328 327 326 327 327 327 328
307 310 309 309 310 311 314 315 318 320 322 323 324 328 333 338 338 337 335 334 334 334 333 334 335 335 335 333 333 334 332 331 331 332 332 331 329 327 326 326 326 324 322 320 318 317 316 315 314 313 311 309 307 306 305 304 303 301 300 299 298 297 296 295 295 296 299 303 307 312 316 318 321 323 323 325 324 325 325 326 326 326 327 325 325
306 308 308 309 310 313 312 313 315 318 321 324 327 330 332 336 336 334 335 332 333 332 332 334 334 335 334 333 332 333 332 329 330 330 330 330 328 327 327 326 325 324 321 320 319 318 316 315 314 313 311 309 307 305 304 303 302 301 300 299 298 297 296 295 294 294 295 297 302 306 313 315 317 319 321 321 322 323 323 323 325 326 326 325 323
307 307 309 309 311 311 310 312 314 317 320 325 329 330 331 332 332 332 333 329 333 332 332 333 333 333 333 332 332 332 331 329 328 328 328 328 327 326 325 325 324 323 322 321 320 318 317 315 314 312 310 309 307 305 303 302 301 300 299 298 297 296 295 294 294 293 293 294 296 300 307 312 315 316 318 320 321 322 323 322 322 322 322 323 322
308 308 307 310 310 310 309 312 316 317 319 324 329 330 329 328 329 331 331 328 331 331 331 330 330 331 331 332 333 332 331 329 328 326 325 324 325 324 322 322 322 323 321 319 319 319 317 315 313 311 309 307 305 304 302 301 299 298 297 297 295 294 294 293 293 292 292 292 293 294 299 305 310 314 316 317 319 321 321 321 322 321 322 321 320
306 307 307 310 311 309 311 312 316 316 317 322 328 328 326 326 324 327 328 327 327 328 329 330 330 330 331 331 330 331 331 330 327 325 324 322 322 321 320 320 320 322 320 319 320 319 317 315 313 311 309 306 304 303 300 298 297 296 296 295 294 293 292 292 292 292 291 291 291 292 293 297 304 309 313 315 317 317 319 320 320 321 320 320 322
306 307 308 310 310 310 311 312 316 318 318 321 326 326 324 322 323 323 322 325 325 326 328 327 324 328 329 328 327 328 328 328 325 323 322 321 320 320 319 317 316 317 319 317 316 314 313 313 312 310 308 306 303 300 298 296 295 294 294 293 292 291 291 291 291 290 290 291 291 291 291 292 295 301 306 311 314 315 316 316 317 318 319 321 321
306 307 308 309 310 310 311 313 317 319 319 322 324 323 321 318 320 322 320 318 322 322 323 323 322 322 324 325 325 326 326 325 324 323 320 321 320 319 317 314 312 313 314 314 312 310 310 310 309 307 305 303 300 298 298 295 293 292 292 292 291 290 290 290 290 289 289 290 290 290 290 291 291 293 297 303 308 311 312 313 313 314 315 317 318
306 307 307 308 310 311 312 313 316 318 320 320 318 319 317 317 317 318 317 318 319 320 320 320 320 320 321 323 324 324 324 322 322 321 320 316 314 314 312 310 308 309 309 310 309 309 310 310 308 306 303 301 298 296 294 293 292 292 291 291 290 290 290 289 289 288 289 289 289 289 289 289 289 290 291 295 300 304 307 309 310 311 311 313 314
306 306 308 308 309 310 311 312 313 314 315 315 316 314 314 313 315 315 315 316 316 316 316 317 317 317 318 318 320 320 321 320 319 319 318 315 311 309 308 307 307 308 307 308 309 309 308 307 306 303 301 300 297 296 294 293 292 291 291 290 289 289 289 288 288 288 288 288 288 288 289 289 289 289 289 290 293 297 300 304 307 308 309 311 312
306 307 308 308 308 309 310 311 312 312 312 312 312 311 310 311 311 310 310 311 313 311 311 311 311 313 314 313 315 316 317 318 316 315 312 311 308 305 306 306 305 305 305 304 305 306 307 305 305 302 299 297 296 294 293 291 291 290 290 289 289 289 288 288 288 287 287 287 287 287 288 288 288 288 288 288 288 291 295 297 301 303 305 307 310
306 307 307 307 307 308 309 310 310 309 309 308 307 308 308 307 305 306 306 307 309 308 308 309 308 309 311 311 311 312 313 313 314 313 311 307 304 302 303 303 301 302 301 302 303 304 304 302 302 301 299 295 293 291 290 289 289 288 288 288 288 288 287 288 287 287 288 287 286 286 287 287 287 287 287 287 287 287 289 292 295 297 299 303 306
305 307 307 307 307 308 309 309 309 308 307 306 304 303 303 304 303 302 302 302 302 304 305 306 305 306 308 308 309 309 309 309 309 309 306 304 302 301 300 300 300 298 298 299 300 301 302 300 297 297 295 292 290 289 288 288 288 287 287 286 287 286 286 287 287 287 287 286 286 285 286 286 286 286 286 286 286 286 286 287 289 290 293 298 302
304 306 307 307 307 307 307 306 306 305 304 302 301 300 300 300 302 302 301 300 300 301 304 304 303 304 305 306 307 307 307 306 305 305 303 301 299 299 298 299 298 297 297 297 298 299 299 297 295 292 293 292 290 289 288 288 287 287 286 285 286 286 286 286 286 286 286 286 286 285 286 285 286 286 286 286 286 286 285 285 285 285 286 293 297
304 304 306 307 307 306 306 305 305 303 302 301 301 300 301 302 300 300 300 298 298 299 300 302 302 302 302 304 305 305 303 304 303 303 304 300 299 297 296 296 296 297 297 297 296 297 296 294 293 291 290 289 289 289 289 288 287 286 286 286 286 286 286 286 285 285 285 285 285 286 285 285 285 285 285 285 285 285 285 284 285 284 284 286 291
303 304 305 306 306 305 304 305 303 301 301 300 301 303 302 301 301 302 300 298 298 298 297 298 300 301 301 302 304 303 301 300 301 299 298 296 296 295 295 295 296 297 297 297 298 297 297 294 292 292 289 288 288 288 289 289 287 285 287 286 286 287 286 285 284 285 284 284 285 285 285 284 284 284 285 285 284 284 284 284 284 284 283 284 284
302 304 304 305 306 305 305 304 302 302 302 304 302 304 305 306 305 300 297 296 296 297 296 295 296 297 298 299 301 300 299 300 297 297 295 295 294 294 294 294 294 295 295 296 297 296 296 293 292 290 291 289 287 289 289 291 287 285 284 285 286 288 287 286 284 284 284 284 284 284 284 284 283 284 284 284 284 284 283 283 283 283 283 283 283
303 303 304 305 304 305 306 304 303 303 302 303 303 303 299 299 299 296 296 293 293 294 293 293 293 294 295 296 297 297 296 295 296 295 295 294 294 293 293 292 292 293 294 295 295 294 294 293 293 290 288 290 289 288 289 290 288 288 288 285 283 284 286 286 285 283 283 283 284 284 284 283 283 284 284 284 284 283 283 283 283 283 282 282 282
302 303 303 304 305 305 305 304 303 302 302 302 299 297 295 294 294 294 293 293 291 291 291 291 292 292 292 294 294 294 293 294 294 295 294 293 292 292 291 291 292 295 296 294 294 293 293 293 293 292 290 287 289 288 287 286 289 288 286 289 286 286 281 281 282 283 283 283 283 283 283 283 283 283 284 283 283 283 282 282 282 282 282 282 282
302 302 302 303 305 305 305 302 302 302 302 298 295 294 293 292 291 291 291 291 291 291 291 290 290 291 291 292 291 292 292 292 292 293 292 292 291 290 291 291 292 294 295 294 293 293 294 294 294 292 292 290 288 287 287 287 288 286 291 286 286 287 287 283 283 282 284 283 282 282 283 282 283 283 283 283 283 283 282 282 282 282 282 281 281
302 303 303 303 304 304 304 303 301 301 297 295 294 294 293 292 292 294 294 293 291 290 293 293 291 291 293 289 289 290 290 290 290 290 290 290 289 290 290 291 291 292 294 294 293 292 293 293 293 294 294 294 291 287 286 285 284 285 285 287 292 291 284 283 284 280 282 282 282 282 281 282 282 283 283 283 283 283 282 281 281 281 281 281 281
303 303 302 303 304 304 303 302 301 300 296 294 295 295 295 297 299 301 302 299 298 295 295 295 296 292 290 289 288 288 289 289 288 289 289 288 288 289 290 290 290 291 291 291 290 291 292 293 291 293 293 291 292 290 287 285 285 284 284 285 284 285 289 284 282 281 279 281 282 281 281 282 282 282 282 282 282 282 282 282 281 281 280 281 280
303 303 302 302 303 303 302 302 301 298 296 294 294 295 295 297 298 300 300 301 301 298 294 292 290 289 289 288 288 287 287 287 287 287 287 287 287 288 288 288 289 289 289 290 290 289 289 289 289 291 290 291 293 289 287 284 287 283 284 284 284 284 285 286 286 286 283 279 279 281 281 281 282 281 282 282 282 282 281 281 281 281 280 280 280
302 302 302 302 302 302 301 301 299 297 296 295 295 295 297 297 298 299 297 296 293 291 290 289 288 288 288 287 287 286 286 286 286 286 286 287 287 287 287 288 288 288 288 289 288 288 289 288 287 288 289 288 290 290 286 285 286 283 282 283 284 284 284 284 283 286 284 281 280 281 281 282 282 281 281 281 282 282 282 281 281 280 280 280 280
302 302 302 301 302 302 300 299 299 297 295 295 295 295 296 296 297 296 296 291 289 287 288 287 287 288 287 287 286 286 286 285 285 286 286 287 286 287 287 287 287 287 287 287 287 287 288 288 288 289 288 287 287 288 288 286 286 284 286 285 285 283 285 284 284 282 283 286 281 281 281 281 280 282 282 281 281 281 281 281 280 280 280 280 280
300 301 301 301 301 300 300 299 298 297 296 294 295 295 295 296 296 295 294 290 288 287 287 286 286 287 286 286 285 285 285 285 285 285 286 286 286 286 286 286 286 287 286 286 286 287 286 287 286 287 287 287 285 287 286 285 285 285 285 286 286 286 286 284 284 285 284 281 281 281 280 281 281 281 282 281 282 281 281 281 280 280 280 279 280
Wind_Speed
4 5 3 2 3 5 5 2 9 10 12 12 12 13 13 14 13 13 13 13 14 14 15 15 15 16 16 16 17 18 17 17 17 17 17 17 17 17 17 17 16 16 16 15 14 15 15 16 16 16 16 16 16 16 18 19 20 20 21 21 21 21 21 20 20 19 20 21 21 21 20 20 20 20 20 21 21 20 19 19 16 15 14 17 22
7 5 3 3 5 5 5 6 7 10 12 12 12 12 13 13 13 13 13 14 15 15 15 15 15 16 16 16 18 17 16 16 16 16 17 17 17 17 17 17 17 16 16 16 15 15 15 15 15 15 16 16 16 17 18 19 20 20 21 21 21 21 21 20 20 19 19 18 19 19 20 21 21 21 21 21 20 21 19 20 19 14 13 20 21
4 6 5 4 5 5 7 6 5 8 11 12 13 12 12 12 11 12 13 14 14 15 15 15 15 16 16 16 16 16 15 15 15 16 16 16 17 17 17 17 17 16 17 17 17 16 16 16 16 16 16 16 17 18 19 20 20 20 21 22 22 21 19 18 18 18 18 17 15 14 16 20 21 21 20 20 20 20 20 20 20 18 15 22 20
5 5 5 5 3 4 5 4 3 4 10 11 12 12 12 12 11 11 12 13 14 15 15 15 16 16 16 16 16 16 15 15 15 15 16 16 17 16 16 16 17 17 17 17 17 17 17 16 17 17 17 16 17 18 19 19 20 21 21 21 21 19 18 18 17 17 16 15 12 11 10 11 15 20 19 20 21 22 19 20 20 21 21 21 23
7 6 6 6 5 3 4 4 4 4 10 10 11 11 11 12 12 12 13 13 14 14 15 15 15 15 15 15 15 15 15 15 15 15 15 16 16 16 16 16 17 16 17 17 17 17 17 17 16 17 16 16 17 18 19 19 20 20 20 20 19 19 18 17 16 15 14 13 10 10 10 12 12 19 19 20 21 20 20 21 20 20 19 21 22
8 7 6 6 4 5 4 2 4 6 9 10 10 11 11 12 12 11 12 13 13 14 14 14 15 14 15 15 15 14 14 15 15 15 15 15 16 16 16 16 17 17 17 17 18 18 18 17 17 17 17 17 17 18 18 19 19 19 18 19 19 19 18 17 16 15 13 10 11 9 11 12 12 12 21 21 21 21 21 21 22 21 20 21 20
9 6 6 6 5 6 7 5 5 8 9 10 11 11 12 12 12 12 12 12 12 13 13 14 14 14 15 15 15 15 14 14 14 14 14 15 16 16 16 16 17 18 17 17 18 18 18 18 17 17 17 17 18 18 19 19 18 19 19 20 20 19 18 17 16 15 12 10 10 10 11 13 12 11 21 21 21 22 22 23 23 22 23 21 21
7 6 6 6 5 6 5 7 4 8 9 10 11 12 12 13 12 12 12 12 11 12 13 13 14 14 14 15 15 15 14 14 14 14 15 16 16 17 16 16 17 18 18 18 18 18 18 17 17 17 17 17 17 19 19 18 18 18 19 18 18 17 17 16 15 16 12 9 11 11 11 12 13 11 19 21 22 22 22 22 23 23 22 22 18
7 7 6 5 5 6 5 8 7 7 10 11 11 12 12 13 12 12 11 11 11 11 12 13 13 14 14 14 14 14 14 14 14 15 15 16 17 17 16 16 17 18 18 18 18 18 18 18 18 18 17 18 18 18 18 18 19 19 20 19 18 18 17 16 13 10 9 8 11 13 12 11 12 12 17 21 22 22 22 18 19 22 24 21 20
7 6 6 4 5 5 6 6 7 7 9 10 10 11 11 12 12 12 12 12 11 12 12 13 13 13 14 14 14 14 14 14 14 15 16 16 16 16 16 16 16 16 17 18 18 19 18 19 18 18 18 19 18 18 19 19 19 21 20 20 19 18 17 15 12 10 8 9 10 13 12 11 12 13 17 19 21 22 17 15 16 17 17 20 23
7 5 5 5 4 4 2 8 7 5 7 8 10 9 12 11 12 12 11 11 11 11 11 12 12 13 13 13 13 13 14 14 15 15 16 16 17 16 16 16 16 16 17 17 18 19 19 19 18 18 18 18 18 19 20 21 21 20 19 19 18 18 17 14 10 7 8 8 9 8 10 13 12 12 18 19 20 21 16 17 18 19 21 21 21
7 5 5 3 4 4 1 2 6 7 7 8 10 10 11 11 12 12 11 11 12 12 12 11 12 12 12 13 13 14 14 14 15 15 16 16 16 16 16 16 16 16 17 18 18 19 19 19 18 19 20 20 21 21 21 20 19 18 18 18 17 16 15 13 7 7 7 8 8 6 10 14 14 15 20 19 20 21 19 20 20 20 21 22 22
7 5 5 5 7 4 3 3 3 6 7 8 8 8 11 12 11 12 12 11 12 12 12 12 11 12 12 12 13 13 14 15 15 15 15 16 16 16 16 17 17 17 17 18 18 18 18 19 19 20 20 20 19 19 19 18 18 18 17 17 16 16 14 13 7 8 7 7 6 6 6 13 14 18 19 20 20 19 20 20 20 21 20 21 21
7 5 5 5 6 8 10 5 2 1 9 7 10 9 9 10 11 11 10 12 11 11 11 12 11 12 13 12 13 13 14 14 15 15 15 16 16 16 17 17 17 17 18 18 18 18 18 18 19 19 19 19 19 18 18 18 18 17 17 17 16 16 12 9 8 7 7 7 6 6 5 12 13 18 19 19 20 19 20 19 20 20 21 20 20
8 6 4 5 9 6 6 8 8 5 4 5 5 7 8 7 9 11 12 11 11 11 11 11 11 11 12 12 12 13 14 14 14 14 15 16 16 16 17 17 17 17 17 18 17 18 18 19 19 18 19 18 18 18 18 18 18 18 17 17 16 15 11 7 6 7 7 6 6 7 6 11 16 17 17 18 18 18 19 19 20 20 20 20 19
6 6 5 5 7 5 5 7 8 4 3 3 5 4 5 7 5 8 10 11 12 11 11 12 11 11 12 12 13 14 13 14 14 14 15 16 16 16 17 17 17 17 17 17 17 17 18 18 18 18 19 19 18 19 19 19 18 18 18 17 16 14 12 9 7 8 7 7 7 6 11 14 22 21 20 20 20 20 20 20 20 20 20 21 22
6 5 5 3 7 5 5 6 7 7 4 4 2 4 4 5 6 3 6 10 10 10 11 11 11 12 12 12 13 13 12 13 13 14 15 15 16 16 16 17 17 17 17 17 17 17 18 18 18 19 19 20 20 20 20 19 19 18 17 17 16 15 13 11 7 7 8 8 6 7 12 11 18 22 23 23 23 23 22 22 22 23 23 23 23
5 5 5 3 4 4 4 4 5 6 5 4 6 6 4 6 6 5 5 7 7 9 10 10 10 10 10 10 11 12 12 11 12 13 15 15 14 14 16 17 17 17 17 18 18 18 18 19 19 19 20 20 20 20 19 19 19 18 17 17 16 15 11 12 7 7 8 8 8 8 12 16 20 22 23 23 24 24 23 23 23 23 23 23 24
4 5 4 5 3 4 2 3 4 5 6 5 4 4 7 7 4 3 5 6 8 8 8 9 10 10 11 11 11 11 10 9 11 11 12 12 12 13 14 16 17 18 18 18 18 18 19 19 19 20 20 20 20 19 19 19 18 18 17 16 14 11 14 10 7 7 7 7 8 11 11 17 20 21 22 22 22 21 22 22 23 23 23 23 23
4 4 4 3 3 3 1 4 3 3 5 6 5 5 6 7 2 3 5 4 8 9 9 9 11 11 10 11 11 10 9 8 11 10 12 12 11 11 12 14 16 17 18 18 19 19 19 19 19 20 20 19 20 19 19 19 18 18 17 16 13 15 9 7 9 8 6 6 9 11 13 17 21 21 22 22 22 22 22 23 22 23 22 22 22
3 4 3 3 3 3 3 3 3 4 2 6 7 6 6 8 3 3 6 5 8 10 10 11 11 10 10 10 10 8 7 5 7 6 9 8 10 11 12 14 16 17 18 18 19 19 20 20 20 20 20 19 18 19 19 19 18 18 17 14 14 10 8 8 8 8 7 6 9 11 15 16 19 20 21 21 21 22 22 23 23 23 23 23 22
4 3 2 2 2 2 2 3 4 4 3 2 6 5 5 9 7 4 5 7 8 9 9 8 7 7 9 8 6 6 7 5 6 7 6 8 9 12 12 14 16 15 17 18 19 19 19 19 19 19 19 17 15 9 10 15 18 17 15 13 11 8 8 9 9 9 9 8 11 12 16 19 20 21 21 21 21 22 22 22 23 23 22 23 22
4 3 1 0 1 1 1 4 3 2 2 2 3 4 6 6 7 6 5 6 7 8 7 8 7 8 7 7 7 6 7 6 5 6 6 10 10 11 13 14 14 15 17 18 18 19 19 19 19 18 17 15 9 8 8 7 8 13 13 10 8 8 9 9 9 9 10 9 9 14 17 19 20 21 20 21 21 21 21 22 22 21 21 22 21
5 3 3 2 0 1 2 3 2 2 2 1 1 1 5 7 6 5 5 6 7 7 7 7 8 7 8 8 7 7 6 6 6 10 9 8 9 12 14 13 14 14 15 12 16 16 18 18 17 15 10 6 8 8 8 7 8 7 8 8 8 8 9 9 8 9 9 11 11 19 18 19 20 20 20 21 22 22 22 23 22 22 23 23 23
2 0 1 1 3 2 2 2 1 1 1 0 1 0 5 7 7 5 6 6 7 7 6 7 8 9 9 8 8 6 6 5 6 6 7 8 9 8 6 6 6 7 11 8 8 8 9 8 8 8 7 7 8 7 8 8 8 8 8 8 8 8 8 8 8 9 9 10 14 20 18 19 21 21 20 20 21 23 22 22 23 23 23 23 23
1 3 4 1 0 1 1 1 1 2 2 0 0 2 3 6 6 7 6 6 7 8 7 6 7 8 7 8 8 7 7 6 6 7 7 7 7 6 6 5 6 7 6 7 6 7 7 7 8 8 7 7 8 7 8 8 8 8 8 8 8 8 8 8 8 8 8 9 12 20 19 19 20 21 20 20 20 21 23 23 23 23 24 25 25
4 4 1 1 2 2 0 1 2 3 3 1 1 3 2 4 6 6 6 7 7 8 8 8 7 8 8 8 9 7 7 6 6 6 8 7 7 7 6 5 6 6 5 7 7 6 6 7 8 8 7 8 9 8 9 9 9 10 9 8 8 8 8 8 8 8 8 8 11 21 20 22 21 21 21 21 21 21 22 23 23 23 24 25 25
4 4 3 2 1 2 2 1 1 2 3 3 3 3 2 3 4 6 7 6 7 6 8 10 10 9 9 8 8 7 7 6 7 7 7 8 8 7 7 7 7 6 6 6 7 6 6 7 9 9 9 8 8 9 8 8 8 9 10 8 9 8 8 8 8 8 8 8 9 17 20 21 22 21 21 22 22 22 22 22 23 24 25 24 24
6 5 4 3 3 2 1 2 2 2 4 3 3 1 2 3 4 5 5 6 7 7 5 7 9 9 10 10 9 8 6 6 6 6 5 7 8 7 7 6 7 6 6 5 5 7 7 7 8 9 8 8 8 8 8 8 8 8 9 9 9 8 8 8 8 8 8 8 8 13 21 21 22 22 22 22 22 22 21 21 21 22 23 24 23
6 5 4 4 2 2 2 3 3 3 4 4 4 2 2 3 4 5 5 5 6 6 8 7 5 5 7 10 9 9 9 7 7 5 6 6 7 7 6 6 6 5 7 7 6 6 7 5 8 10 10 8 8 7 8 9 10 8 8 8 8 8 7 7 8 8 7 7 8 9 20 21 22 22 22 22 23 23 23 22 21 22 23 23 22
5 6 4 4 3 2 3 3 4 5 5 5 6 5 3 3 4 4 6 5 4 6 6 6 7 5 6 7 7 7 8 8 7 7 6 6 6 8 7 6 7 5 8 8 6 7 7 4 7 9 9 9 8 7 7 9 9 9 8 9 8 7 7 7 7 7 8 7 7 8 11 20 21 22 22 23 23 23 24 23 23 22 23 22 22
7 6 5 4 3 3 3 3 5 6 6 8 7 6 5 3 4 4 3 4 5 4 5 5 4 6 6 6 5 6 8 9 9 8 8 8 6 7 7 8 6 4 6 8 7 7 7 6 7 9 10 10 9 8 7 9 9 8 8 9 7 7 7 6 7 8 8 7 7 7 8 9 18 22 22 23 23 24 24 24 24 23 23 23 22
4 5 5 4 5 3 3 3 6 7 8 9 7 5 5 4 4 5 5 2 5 4 4 4 4 2 6 6 6 6 8 9 10 9 8 7 8 8 7 7 5 5 5 8 9 9 8 7 7 9 9 9 10 9 7 8 10 8 8 7 7 8 6 7 7 7 8 8 8 7 8 8 9 15 20 22 23 23 23 24 24 23 23 23 23
6 4 5 5 4 3 2 2 4 7 7 6 4 5 5 4 3 4 4 3 3 5 4 4 4 4 4 6 7 8 7 5 9 9 8 7 6 7 8 8 5 5 6 7 7 6 8 10 8 8 8 10 9 8 7 9 9 8 8 6 7 7 6 8 7 7 7 8 7 7 7 7 8 8 9 17 22 22 23 23 23 23 23 23 23
5 5 7 5 5 3 2 2 3 3 4 4 4 5 4 3 5 4 5 3 3 4 4 4 4 4 5 5 5 6 7 7 5 8 8 9 7 6 7 6 7 7 6 5 8 5 4 9 9 11 9 8 9 7 7 9 8 9 7 6 7 6 7 8 7 7 7 6 7 7 7 7 7 7 7 8 13 21 22 22 23 23 23 23 23
8 7 6 5 4 4 3 3 3 4 4 3 4 5 4 2 2 4 5 3 4 5 3 4 5 4 4 5 5 5 5 9 9 6 7 7 7 7 5 4 8 6 6 5 6 7 6 8 5 12 10 8 8 7 6 9 8 9 7 7 6 6 7 6 7 7 6 6 7 8 8 8 8 7 7 7 8 12 21 21 22 22 23 23 22
8 8 7 5 5 4 4 5 5 6 5 4 4 5 4 3 3 4 5 4 4 5 2 4 4 4 4 4 5 5 4 5 8 8 7 7 6 7 7 4 5 6 7 6 5 5 8 9 5 4 10 10 9 10 8 8 9 8 7 9 7 6 7 6 6 6 5 8 8 8 8 8 8 8 7 7 7 7 13 20 20 22 22 22 22
8 8 8 7 6 5 5 4 3 4 4 5 4 5 4 4 4 3 4 5 4 4 2 3 3 3 4 4 6 6 5 5 5 6 7 7 6 8 8 5 8 7 7 7 7 6 5 7 8 5 5 11 8 10 10 8 8 8 8 9 7 7 6 6 6 5 6 8 8 8 7 7 7 7 7 7 7 7 7 12 18 19 22 22 22
7 8 8 7 5 5 5 5 5 5 5 5 6 5 6 5 5 4 4 5 4 3 2 4 4 2 4 5 6 6 5 7 6 7 8 7 7 5 7 7 8 8 6 8 8 9 8 6 14 8 6 5 9 9 10 9 9 8 8 8 7 7 6 6 5 5 6 7 8 7 6 7 7 7 7 7 7 7 9 8 8 8 10 20 20
8 7 10 8 8 6 5 5 6 5 6 5 5 5 4 5 6 5 5 4 4 3 3 3 4 3 4 6 6 7 5 5 5 6 8 7 7 5 7 6 7 8 8 10 7 7 10 10 10 13 11 8 7 9 9 11 10 11 10 8 7 7 7 5 6 7 6 7 6 6 7 6 7 6 7 6 6 7 8 7 7 7 6 12 19
8 9 10 10 11 8 7 10 6 6 6 7 5 8 7 4 3 6 6 3 4 3 3 3 2 2 3 5 7 7 7 1 6 6 7 8 7 5 7 6 6 6 7 8 9 9 9 11 10 9 14 12 7 6 6 9 12 9 7 8 7 6 6 7 8 7 7 6 5 6 6 6 6 6 5 5 6 7 7 7 7 7 7 6 9
10 11 12 12 11 9 10 8 7 8 7 8 7 6 6 6 6 5 5 4 5 4 4 2 2 1 0 3 7 8 8 3 4 8 7 8 8 7 6 7 9 7 7 7 8 9 11 11 11 10 3 10 9 6 5 3 5 8 9 7 6 5 5 7 8 8 7 6 5 6 5 6 6 5 4 5 6 7 7 6 6 7 7 7 7
10 13 12 12 10 11 10 10 8 9 7 8 7 6 3 3 3 5 5 5 3 2 3 3 2 1 1 2 6 8 8 5 4 7 8 7 7 7 7 7 8 7 9 9 9 10 10 14 12 12 9 3 5 1 1 3 6 5 7 8 5 4 2 4 5 7 6 5 4 6 5 6 6 4 3 4 5 5 5 5 6 7 7 7 6
9 11 13 14 12 11 11 10 9 8 8 6 5 4 5 7 8 6 5 4 5 4 4 4 3 3 2 1 5 7 6 6 4 6 6 8 8 7 7 7 8 7 9 11 10 10 9 9 8 9 12 11 5 2 2 1 5 10 5 1 3 3 5 2 3 3 3 5 5 5 4 5 5 4 3 4 4 4 5 5 6 6 6 7 6
11 13 13 13 11 13 11 10 9 8 8 7 7 7 8 7 6 7 6 8 6 4 4 3 2 2 2 2 4 8 5 5 4 5 7 8 7 6 8 8 8 7 7 10 10 10 9 8 10 10 10 13 7 3 1 1 1 5 4 6 3 3 2 5 5 4 1 4 5 4 4 4 4 3 3 4 3 3 4 5 5 6 6 6 6
13 11 11 11 10 11 10 11 8 7 7 7 8 8 6 10 8 8 8 5 6 6 8 10 8 8 7 3 3 6 4 5 4 5 6 6 8 8 8 8 7 7 6 8 9 8 9 10 9 10 9 7 11 6 4 2 3 3 2 2 1 3 7 5 3 4 3 3 2 3 3 3 2 3 3 3 3 3 3 4 5 6 6 6 6
12 9 10 11 11 11 11 10 9 8 7 8 9 9 7 10 13 12 12 11 11 7 5 5 7 5 4 5 4 4 4 6 5 5 6 5 6 6 7 7 7 7 6 7 8 9 9 10 7 7 8 7 8 9 9 5 3 4 3 1 2 2 9 9 4 7 5 2 1 1 2 2 3 3 2 2 2 3 3 4 5 4 5 4 5
9 10 11 11 13 13 13 13 9 8 7 8 7 7 8 9 8 8 8 10 11 11 10 7 4 5 6 5 5 3 3 5 5 5 4 5 6 6 6 7 8 6 7 7 9 8 6 5 5 5 6 8 9 10 8 8 8 4 1 3 5 5 5 5 6 6 5 7 4 1 1 1 2 2 1 2 2 3 3 3 3 3 3 4 4
10 11 12 12 10 10 11 11 10 8 9 11 10 7 7 8 9 8 8 4 3 4 4 4 5 5 6 4 5 4 4 5 4 4 4 5 5 6 8 7 8 8 6 6 6 8 11 10 8 7 9 6 6 8 9 9 6 7 6 3 5 5 4 4 3 3 4 5 4 4 4 1 1 2 1 1 1 2 2 2 2 2 2 3 3
9 10 10 10 10 11 12 14 14 9 9 10 8 9 7 8 8 7 9 8 5 4 4 5 4 4 6 5 5 4 4 4 4 4 4 4 5 6 7 9 9 8 7 7 8 9 9 9 9 10 8 9 4 8 11 8 6 7 6 7 6 4 4 3 3 4 4 3 6 7 5 6 4 3 2 2 2 3 2 2 2 1 2 2 3
8 10 10 11 11 11 13 15 14 9 11 10 10 10 9 8 8 9 9 11 8 8 8 5 4 4 5 4 4 4 3 4 4 4 3 5 5 5 6 7 6 7 7 8 8 8 8 8 7 8 9 11 7 7 7 7 6 6 6 7 8 9 7 6 7 4 4 4 4 4 2 3 3 4 4 2 2 3 3 2 2 1 1 2 2
Wind_Direction
195 198 185 238 136 136 134 138 122 118 118 116 112 110 106 100 97 99 106 105 105 105 102 98 97 93 88 86 83 78 72 67 63 61 59 58 59 60 61 63 64 67 69 71 74 76 79 81 82 84 82 76 75 72 70 72 70 71 72 71 70 69 66 63 58 55 55 56 56 55 56 57 57 57 56 54 53 51 46 41 42 49 47 43 41
167 197 203 216 161 147 142 121 118 124 121 119 116 110 104 102 101 101 104 105 103 102 100 98 95 92 89 85 83 80 74 69 65 63 61 60 59 61 62 63 65 68 70 73 75 78 81 83 84 85 84 82 80 76 73 76 74 73 73 73 71 68 66 63 61 59 58 58 58 56 57 58 57 58 59 59 56 54 50 48 46 49 48 48 46
184 178 186 193 155 164 136 129 120 128 121 123 116 109 106 101 102 101 95 97 98 99 97 95 94 93 92 89 88 84 79 74 69 66 63 62 63 62 64 65 66 68 70 73 76 79 82 84 83 85 85 85 83 79 75 74 75 74 74 72 71 70 68 62 59 61 61 58 55 56 58 59 58 59 60 61 61 59 56 53 52 52 51 49 49
175 177 180 184 164 144 136 120 118 112 118 116 111 111 111 108 104 102 101 100 100 97 96 93 90 91 92 91 90 88 83 77 72 68 66 65 65 67 67 67 68 68 70 72 76 79 82 85 83 85 87 87 86 83 79 75 74 75 73 73 74 71 69 67 65 64 61 58 51 55 59 62 60 59 61 61 62 60 59 58 56 56 54 53 50
163 171 181 165 153 155 132 133 142 132 121 113 113 113 111 108 103 102 99 97 97 97 94 93 93 93 95 96 94 91 85 78 73 70 68 66 67 68 69 71 71 70 72 74 77 80 82 84 86 86 87 86 86 85 83 81 77 76 76 77 76 74 73 69 65 61 56 53 41 56 59 61 62 58 59 59 60 59 57 58 59 56 52 51 51
167 168 170 166 164 148 144 179 161 143 118 117 117 117 113 106 102 103 102 98 95 95 95 96 95 95 95 93 93 91 85 79 76 72 69 67 67 68 70 71 73 73 74 76 79 80 82 84 86 89 90 91 90 88 85 83 80 78 78 78 76 73 69 62 57 51 48 46 47 57 60 60 60 58 58 58 59 59 59 59 59 58 55 53 53
165 162 166 168 160 158 170 177 171 147 124 126 122 118 118 109 108 110 107 106 105 101 100 99 97 97 96 96 96 90 85 81 76 72 68 66 64 65 68 70 72 74 77 78 78 80 81 83 88 92 91 89 85 85 84 82 81 80 78 76 73 70 64 58 57 55 45 49 58 59 63 61 60 60 59 59 58 59 58 59 58 57 56 54 53
160 161 169 166 160 174 188 167 187 143 136 134 127 126 123 115 115 114 111 109 110 109 109 103 97 96 97 98 96 91 85 82 77 72 67 64 62 63 65 69 72 74 77 80 80 80 81 85 89 90 90 86 84 85 84 82 81 79 76 74 71 67 63 60 58 61 45 53 59 62 62 64 65 62 59 61 60 59 58 58 58 57 55 55 53
169 160 163 168 160 167 180 163 170 152 141 132 129 130 127 123 119 119 119 118 117 115 109 105 105 102 101 100 97 93 90 83 77 71 69 66 64 63 65 68 72 74 77 80 82 82 82 86 88 89 87 86 86 87 85 83 79 77 75 71 67 63 59 54 48 40 53 51 61 66 62 63 68 66 59 61 61 59 59 58 58 57 56 55 55
170 156 164 167 169 161 156 158 160 154 143 137 133 136 132 128 126 124 124 120 118 117 113 110 106 104 106 105 101 97 92 83 76 72 69 68 67 66 66 68 71 75 78 79 81 82 85 87 84 84 85 85 85 83 81 79 74 66 63 62 61 59 54 48 40 37 43 49 53 62 52 47 68 67 63 61 63 61 56 62 61 59 58 56 55
181 139 151 166 169 145 169 158 157 166 139 146 138 140 135 134 131 128 126 123 122 117 113 111 110 110 111 109 104 98 90 83 77 72 69 69 69 70 71 72 74 76 80 82 81 82 84 85 85 84 84 84 83 80 72 66 62 64 64 63 61 58 53 46 36 44 38 36 45 54 58 56 66 66 66 62 63 65 57 62 63 59 58 56 56
188 140 139 162 158 134 189 151 155 150 155 154 153 152 140 140 138 135 131 129 126 121 119 118 118 116 112 109 104 98 91 84 79 74 72 71 72 73 74 74 76 79 81 81 82 82 84 84 84 82 75 70 65 64 65 67 68 68 68 66 64 60 54 45 42 42 36 35 37 30 56 62 61 65 67 62 63 64 62 60 63 61 59 57 55
177 156 137 146 149 142 246 248 159 154 166 162 143 164 145 145 142 139 138 135 131 126 123 124 122 119 113 109 104 99 92 87 82 77 75 74 74 76 77 77 77 80 82 83 83 83 84 83 78 73 72 71 71 71 71 71 71 70 68 66 62 58 53 41 39 37 35 29 32 28 41 70 66 64 65 63 63 62 62 61 58 59 59 57 56
167 182 144 143 128 170 191 206 176 259 155 177 163 159 148 144 146 142 140 136 133 130 128 127 126 121 116 112 107 103 97 92 86 82 78 76 75 77 79 81 81 81 82 82 82 84 85 84 81 78 75 74 73 72 72 72 72 71 67 62 59 56 47 46 39 40 36 27 27 20 27 68 67 65 65 66 65 62 60 60 58 57 58 55 53
148 167 140 141 147 194 169 138 159 244 169 162 144 151 149 144 150 145 146 138 139 138 133 130 127 122 118 114 110 104 100 94 89 84 81 77 77 79 81 83 85 85 85 84 84 85 87 87 85 82 79 78 77 77 75 74 72 68 64 61 59 54 41 47 38 40 39 34 31 25 20 63 64 70 69 64 67 63 61 59 59 55 53 51 54
117 126 119 140 150 167 158 141 164 86 112 68 137 120 123 136 153 158 148 147 147 143 136 133 130 125 119 116 110 105 101 97 92 88 84 81 81 82 84 87 87 88 88 89 88 88 88 88 85 82 80 80 78 76 73 71 69 67 65 63 60 55 43 42 43 33 35 31 30 30 56 58 55 55 56 59 59 63 61 56 55 56 54 52 55
82 88 92 105 148 149 132 147 165 154 129 145 160 99 135 145 159 162 155 151 146 140 138 135 131 125 120 116 111 109 107 104 97 93 90 87 86 85 88 89 89 87 86 85 85 86 87 86 83 82 81 80 77 74 73 71 69 67 65 63 58 53 44 44 43 37 37 32 29 36 57 57 54 58 64 65 64 63 62 57 56 57 56 55 57
50 62 86 56 94 106 123 111 152 157 152 153 172 135 163 153 155 170 152 143 142 137 136 132 124 116 111 105 107 114 116 111 106 102 98 94 92 90 89 90 90 88 86 86 86 86 87 86 85 84 82 79 76 74 72 71 69 67 64 60 57 54 46 48 45 40 38 36 37 39 60 54 51 51 50 52 55 55 57 57 54 54 53 52 50
73 62 61 57 32 53 88 74 114 161 150 147 162 129 111 102 88 104 120 137 140 133 125 120 118 113 108 103 105 114 120 117 106 105 102 100 97 92 91 91 91 88 86 86 87 86 85 85 84 83 81 79 77 73 70 69 68 66 63 59 55 50 49 50 42 38 34 41 43 53 55 59 59 56 54 52 52 52 51 50 49 48 50 50 49
85 68 61 57 50 62 12 81 57 72 154 159 166 144 147 123 73 103 141 149 136 117 103 101 104 106 108 110 111 117 119 112 110 108 105 103 101 98 94 91 91 90 89 89 88 88 86 84 82 81 79 76 73 70 69 68 66 63 60 58 51 52 47 42 39 36 31 37 52 62 53 60 64 63 61 58 57 57 55 53 51 48 46 46 45
89 70 54 36 49 43 43 80 61 49 17 182 168 159 163 130 237 116 107 111 109 109 109 107 109 113 119 116 117 123 127 114 110 104 103 102 102 96 95 93 91 91 92 92 92 90 88 87 85 83 80 76 71 68 65 65 63 61 58 54 54 53 44 43 41 40 36 24 57 62 58 59 62 62 62 61 60 58 56 54 54 53 50 50 51
139 114 59 35 46 56 32 67 68 32 357 242 166 165 168 165 169 144 123 119 119 120 124 125 123 128 129 131 127 131 133 120 113 113 106 106 99 100 99 98 96 95 95 96 96 94 92 90 87 84 82 79 73 70 65 62 59 58 54 52 57 50 43 44 42 41 30 35 50 51 57 61 61 62 60 60 58 58 56 55 54 54 55 53 51
173 138 149 104 212 150 102 70 50 20 346 283 125 174 165 157 154 137 123 123 130 133 131 135 139 143 145 139 136 140 136 131 128 128 119 108 101 95 94 94 97 97 97 99 98 96 93 91 87 85 84 82 76 74 70 65 62 57 57 53 54 51 47 44 45 41 40 28 44 47 61 60 59 59 59 59 58 58 56 56 55 52 53 53 51
169 168 165 230 172 38 53 81 48 12 322 335 39 209 181 161 152 141 136 140 143 141 140 143 146 151 148 147 146 143 140 137 126 123 117 112 98 94 97 95 95 94 94 93 93 91 91 87 87 87 83 77 82 80 76 68 65 59 54 55 54 48 47 45 44 42 40 32 31 30 45 56 61 61 60 59 59 58 57 57 54 51 52 52 50
160 323 267 313 25 28 45 52 70 283 310 318 42 193 204 161 150 152 147 151 150 146 145 149 152 158 156 153 150 143 143 142 143 138 131 126 120 116 109 108 105 103 106 100 105 101 96 94 91 84 82 84 82 80 82 76 69 62 58 55 56 50 49 45 44 43 37 35 31 31 42 54 56 58 59 59 59 58 57 58 55 52 54 52 52
213 193 189 209 28 40 16 339 289 219 195 200 161 273 244 154 151 160 163 162 157 151 152 157 160 163 162 159 156 152 146 146 149 144 136 130 124 120 121 120 115 108 109 105 105 105 103 102 94 88 85 81 79 78 78 80 77 68 63 57 57 55 54 49 46 45 41 38 31 33 37 55 59 58 58 59 59 56 57 59 59 55 55 54 53
189 206 153 315 327 332 81 24 310 309 302 180 197 233 211 195 158 154 167 162 159 156 162 165 172 165 162 159 162 160 149 151 153 153 144 138 132 129 128 127 122 118 119 120 110 106 110 110 99 95 91 87 86 81 79 79 79 79 71 63 60 60 57 53 50 48 42 39 31 31 44 49 58 59 59 58 60 60 58 59 59 57 54 51 48
170 190 196 192 269 257 318 328 244 281 265 248 227 220 203 215 185 166 167 162 157 172 167 172 170 170 165 162 161 157 156 153 156 158 149 143 138 136 138 134 126 124 129 121 121 116 112 105 106 102 95 87 91 89 85 79 76 78 75 64 61 59 57 56 55 50 47 41 36 31 40 50 56 59 59 61 61 60 61 60 60 59 58 56 54
189 192 177 190 211 231 271 285 293 257 253 246 246 255 166 193 167 192 169 160 170 169 176 170 177 173 170 162 162 157 158 150 156 155 147 144 140 137 132 133 131 129 123 105 100 111 115 113 112 108 97 92 88 85 86 82 79 74 76 72 67 61 56 56 53 50 49 47 41 31 37 42 50 56 58 58 59 59 58 58 59 58 57 56 54
197 174 175 193 217 215 214 218 223 268 280 263 234 218 203 182 191 181 168 171 176 170 164 166 176 166 173 168 165 163 161 157 155 146 142 139 135 129 125 129 130 131 120 116 119 111 108 114 118 114 107 99 91 91 93 88 80 75 74 75 65 61 56 55 51 50 51 49 43 37 34 39 42 48 53 56 56 58 57 56 57 57 56 55 53
178 184 185 190 194 193 217 216 218 231 244 243 213 199 169 203 169 165 164 165 170 160 159 157 160 178 169 164 156 166 159 159 150 151 143 139 134 130 128 127 132 138 123 120 119 119 113 119 120 116 112 109 101 96 94 92 86 78 73 71 67 66 63 58 58 55 53 47 47 44 36 37 40 43 50 54 55 57 57 57 57 56 56 55 54
188 192 190 182 181 204 223 214 227 231 228 230 206 180 177 195 184 135 125 160 158 154 151 150 152 162 157 147 146 158 163 156 150 146 148 145 141 136 133 127 126 132 125 125 109 99 101 109 100 97 103 106 105 94 91 93 87 79 75 72 67 71 64 62 62 57 56 51 48 44 44 36 37 39 43 51 54 53 53 54 55 56 55 54 53
201 183 185 178 186 204 227 230 224 225 217 213 196 160 159 150 203 150 134 168 143 140 140 144 138 153 138 138 145 160 165 152 152 151 145 144 144 139 135 132 123 129 110 110 114 118 114 114 103 108 103 102 100 97 90 86 87 82 77 74 74 68 63 64 61 58 54 52 49 47 46 41 38 36 36 41 45 48 51 52 53 53 52 52 51
174 186 168 180 180 186 199 218 205 207 198 188 152 156 148 148 208 136 104 120 135 127 125 130 133 136 116 128 147 157 155 129 144 145 140 124 123 133 134 132 118 117 117 117 108 115 125 119 118 108 108 105 102 104 103 91 90 88 82 77 74 71 68 66 60 59 59 57 54 53 51 48 44 42 31 35 41 45 47 49 50 51 51 50 50
169 180 181 178 174 172 188 188 155 127 130 136 139 114 110 143 165 126 114 110 93 110 123 135 128 132 124 119 134 148 143 134 122 139 145 140 125 118 125 131 134 131 115 112 121 118 105 118 130 114 110 98 105 107 99 96 96 90 82 80 76 74 70 71 66 64 64 66 62 59 56 52 48 43 34 35 35 39 43 46 47 48 49 49 49
182 173 170 162 168 168 178 161 150 133 106 107 96 91 89 107 142 109 95 86 102 87 91 109 114 116 112 111 112 110 131 144 134 125 122 135 127 120 118 129 127 121 110 109 113 120 115 107 109 124 111 103 108 95 87 96 91 85 84 80 78 73 75 73 70 68 66 69 64 60 55 52 48 46 39 42 40 37 41 44 45 45 45 47 47
178 174 170 163 170 163 162 159 158 136 120 105 96 93 89 92 64 91 100 99 100 100 56 125 108 123 116 113 104 103 110 119 137 132 132 128 120 118 119 141 117 113 108 113 106 120 125 116 90 82 114 121 110 105 93 95 93 90 85 79 70 72 71 71 72 76 67 66 63 60 58 54 53 48 47 44 43 39 38 42 43 42 41 42 44
184 176 169 174 179 164 163 147 134 128 121 121 115 109 101 88 69 57 88 100 83 79 109 103 94 106 112 115 122 116 122 105 87 125 124 123 128 130 128 139 119 109 120 125 120 113 101 124 99 70 98 118 119 116 107 99 97 94 80 76 72 70 68 67 72 66 70 73 65 62 61 60 53 49 47 47 43 41 37 37 38 37 35 37 40
179 177 172 179 167 162 146 142 137 130 116 113 111 102 102 90 90 76 59 70 70 66 70 94 89 106 122 124 119 114 114 125 117 114 113 123 123 120 123 133 124 120 117 122 122 114 110 122 120 101 57 64 119 115 117 111 98 88 81 75 75 68 70 71 72 71 67 70 75 73 67 59 58 49 49 46 44 42 40 37 32 32 30 33 37
176 174 179 177 177 158 152 142 153 140 129 122 129 121 121 130 113 100 80 61 64 87 58 64 81 120 127 129 122 112 99 126 135 137 131 125 125 130 125 131 125 132 134 118 131 136 133 117 113 117 111 92 88 117 125 111 94 86 86 78 71 75 70 71 68 64 65 63 67 66 66 62 59 54 49 49 50 47 48 44 41 36 31 31 34
181 178 181 184 186 172 154 173 160 153 154 145 156 153 146 123 111 140 140 133 111 95 79 60 67 154 161 135 133 120 106 131 148 140 132 125 127 128 129 128 127 139 144 135 135 130 128 126 120 118 126 122 116 126 132 126 113 88 85 84 80 71 72 65 62 56 55 58 59 66 65 68 63 60 52 56 54 51 51 45 42 39 33 27 27
193 184 188 187 184 171 177 170 161 171 173 171 163 174 175 164 160 162 144 136 134 151 128 109 106 88 210 163 133 119 121 162 194 138 135 131 136 143 143 139 133 124 99 117 125 128 134 131 130 113 86 127 135 164 169 135 92 132 132 113 91 87 72 61 59 51 52 55 59 68 68 72 69 65 61 62 58 55 51 47 45 43 39 36 29
179 188 186 183 177 182 185 175 175 175 178 172 169 170 130 70 108 138 148 122 55 42 77 100 79 99 197 207 122 107 119 163 192 140 135 141 137 141 142 131 129 133 131 139 136 138 145 144 150 138 133 50 103 357 227 307 127 120 110 113 141 115 130 89 74 57 51 53 63 71 70 74 67 62 64 66 64 58 53 47 48 45 43 38 34
183 187 188 190 189 190 188 180 174 173 170 169 130 84 83 84 77 80 72 70 130 117 94 94 98 90 123 249 92 98 115 154 178 144 133 131 137 141 136 136 142 156 144 142 148 145 148 146 143 140 134 137 159 145 350 260 170 144 149 105 145 131 128 131 104 86 60 55 52 63 63 68 71 73 68 67 66 66 60 54 50 48 43 41 37
193 191 188 191 190 190 185 174 168 172 169 152 132 125 117 96 97 88 86 89 84 104 112 101 122 145 164 156 114 101 124 151 147 125 129 132 127 144 143 141 146 156 150 142 153 156 155 151 153 150 165 145 151 136 81 64 114 338 137 129 105 201 195 137 145 99 109 73 40 48 62 61 74 72 75 77 79 76 76 61 56 49 41 40 34
200 195 186 185 180 183 178 175 164 164 151 148 145 146 154 143 141 141 148 142 148 157 174 168 174 183 175 154 101 104 130 134 106 115 119 130 137 143 141 139 143 144 158 145 135 135 155 161 171 158 151 175 139 133 122 37 32 44 1 356 267 174 147 168 164 141 73 47 54 64 56 63 77 78 76 86 83 85 72 68 55 50 41 35 32
202 178 177 182 181 176 173 172 171 164 151 159 161 159 163 171 171 171 170 173 172 196 177 168 172 153 134 145 115 100 105 116 99 97 106 117 127 135 132 130 132 131 133 140 149 157 157 160 151 167 154 134 145 133 149 146 121 52 31 56 78 30 130 143 172 114 146 151 86 54 69 57 65 79 96 98 98 97 80 72 64 57 45 36 30
181 171 176 177 185 181 176 179 172 162 161 161 173 178 167 179 183 181 180 181 184 179 179 170 135 139 138 127 127 110 101 86 104 99 102 135 138 126 127 131 134 140 145 157 151 147 138 131 141 134 138 159 158 144 147 165 157 141 134 104 78 69 64 44 115 157 141 151 167 212 209 60 75 88 100 117 119 104 103 88 76 63 56 40 29
181 179 177 179 178 176 174 173 173 159 166 171 174 181 184 180 182 177 179 179 112 108 122 114 136 145 130 120 113 115 104 87 85 116 132 139 142 138 136 136 141 146 150 138 143 151 152 147 151 151 159 160 158 144 143 169 158 153 146 79 86 78 69 58 93 95 141 147 148 169 169 189 202 123 98 131 127 121 110 105 87 72 61 45 34
182 175 172 172 179 178 179 178 183 175 168 174 175 176 181 179 183 186 174 155 123 113 115 131 144 155 137 134 121 132 125 115 111 125 134 138 139 142 142 147 148 145 152 149 145 149 152 156 158 152 150 139 139 158 158 152 159 156 164 149 136 139 113 118 87 109 58 67 162 177 173 176 190 168 150 162 159 152 138 130 130 110 75 54 33
176 171 172 176 179 179 182 186 184 176 177 174 175 180 183 183 183 184 175 157 147 142 140 139 144 146 144 137 140 125 125 126 136 135 138 136 138 145 150 146 145 148 147 155 162 157 157 148 142 136 145 144 151 144 126 141 143 149 163 169 160 167 161 167 170 169 147 142 120 137 142 198 194 183 189 157 186 175 164 160 157 149 100 63 45